FW5910 Weather Reports


time (UTC)temp
C
wind
direction
speed
KPH
gust
KPH
rain 1hr
cm
rain 24hr
cm
rain mn
cm
humidity
%
barometer
mb
20260904110235 10 211 4.8 8.0 0.00 0.41 0.00 78 1009.0
20260904105739 10 255 4.8 11.3 0.00 0.41 0.00 79 1009.0
20260904105237 10 243 4.8 12.9 0.00 0.41 0.00 80 1009.1
20260904104735 10 126 3.2 12.9 0.00 0.41 0.00 82 1009.3
20260904104238 10 191 0.0 6.4 0.00 0.41 0.00 82 1009.0
20260904102731 10 236 4.8 12.9 0.00 0.41 0.00 80 1007.2
20260904102232 10 207 4.8 12.9 0.00 0.41 0.00 80 1007.4
20260904101235 9 223 1.6 8.0 0.00 0.41 0.00 81 1007.9
20260904100730 9 167 1.6 6.4 0.00 0.41 0.00 82 1007.5
20260904100232 9 202 0.0 4.8 0.00 0.41 0.00 82 1007.2
20260904095234 9 244 0.0 0.0 0.00 0.41 0.00 82 1006.7
20260904094730 9 245 0.0 0.0 0.00 0.41 0.00 82 1006.3
20260904094232 9 245 0.0 0.0 0.00 0.41 0.00 83 1006.2
20260904093733 9 244 0.0 0.0 0.00 0.41 0.00 83 1006.2
20260904093233 8 244 0.0 1.6 0.00 0.41 0.00 83 1006.5
20260904092731 8 244 0.0 1.6 0.00 0.41 0.00 82 1006.5
20260904091733 8 245 3.2 4.8 0.00 0.41 0.00 82 1006.3
20260904091232 9 245 3.2 6.4 0.00 0.41 0.00 82 1006.2
20260904090235 9 244 3.2 6.4 0.00 0.41 0.00 81 1006.3
20260904085731 10 244 1.6 8.0 0.00 0.41 0.00 81 1006.5
20260904085232 10 236 1.6 8.0 0.00 0.41 0.00 81 1006.3
20260904084730 10 211 1.6 8.0 0.00 0.41 0.00 81 1006.6
20260904084233 9 213 1.6 4.8 0.00 0.41 0.00 82 1006.7
20260904083730 9 221 1.6 4.8 0.00 0.41 0.00 81 1006.7
20260904083232 10 225 1.6 4.8 0.00 0.41 0.00 81 1006.8
20260904082731 10 225 0.0 4.8 0.00 0.41 0.00 81 1006.7
20260904082235 10 224 1.6 4.8 0.00 0.41 0.00 81 1006.7
20260904081730 10 224 1.6 4.8 0.00 0.41 0.00 81 1006.7
20260904081232 9 223 0.0 3.2 0.00 0.41 0.00 81 1006.8
20260904080730 9 223 1.6 6.4 0.00 0.41 0.00 81 1006.9
20260904080232 9 223 3.2 6.4 0.00 0.41 0.00 82 1006.9
20260904075731 9 217 3.2 6.4 0.00 0.41 0.00 82 1007.0
20260904075238 9 211 1.6 6.4 0.00 0.41 0.00 82 1006.9
20260904074733 9 207 0.0 6.4 0.00 0.41 0.00 80 1007.1
20260904074234 9 327 0.0 0.0 0.00 0.41 0.00 80 1007.0
20260904072232 10 328 0.0 0.0 0.00 0.41 0.00 81 1006.9
20260904071730 10 328 0.0 0.0 0.00 0.41 0.00 80 1007.0
20260904071231 10 328 0.0 0.0 0.00 0.41 0.00 80 1007.0
20260904070730 10 328 0.0 0.0 0.00 0.41 0.00 81 1006.9
20260904070232 10 328 0.0 0.0 0.00 0.41 0.00 81 1007.0
20260904065232 10 329 0.0 0.0 0.00 0.41 0.00 80 1006.9
20260904064730 10 329 0.0 3.2 0.00 0.41 0.00 81 1007.0
20260904063236 10 328 1.6 6.4 0.00 0.41 0.00 80 1007.1
20260904062731 10 327 3.2 6.4 0.00 0.41 0.00 80 1007.2
20260904062232 11 335 3.2 6.4 0.00 0.41 0.00 81 1007.0
20260904061730 10 332 1.6 6.4 0.00 0.41 0.00 81 1007.1
20260904061233 10 39 1.6 4.8 0.00 0.41 0.00 82 1007.2
20260904060729 10 332 3.2 6.4 0.00 0.41 0.00 81 1007.5
20260904060234 10 332 3.2 6.4 0.00 0.41 0.00 82 1007.5
20260904055731 10 331 3.2 6.4 0.00 0.41 0.41 82 1007.5
20260904054730 10 327 1.6 4.8 0.00 0.41 0.41 81 1007.8
20260904054233 10 327 3.2 4.8 0.00 0.41 0.41 81 1007.8
20260904053232 11 341 0.0 4.8 0.00 0.41 0.41 80 1007.9
20260904052731 11 338 1.6 4.8 0.00 0.41 0.41 80 1008.1
20260904051730 11 0 0.0 4.8 0.00 0.41 0.41 79 1008.2
20260904051233 11 338 1.6 3.2 0.00 0.41 0.41 79 1008.3
20260904050732 11 338 1.6 4.8 0.00 0.41 0.41 79 1008.2
20260904050232 11 338 1.6 6.4 0.00 0.41 0.41 79 1008.3
20260904045734 11 0 1.6 6.4 0.00 0.41 0.41 79 1008.3
20260904045234 11 336 0.0 0.0 0.00 0.41 0.41 77 1008.4
20260904044232 12 336 0.0 0.0 0.00 0.41 0.41 75 1008.6
20260903225235 17 0 1.6 6.4 0.00 0.51 0.41 65 1010.1
20260903224733 17 0 1.6 6.4 0.00 0.51 0.41 67 1010.1
20260903224233 17 0 1.6 6.4 0.00 0.51 0.41 67 1010.0
20260903223730 17 0 1.6 4.8 0.00 0.53 0.41 66 1010.0
20260903223233 17 0 1.6 4.8 0.00 0.56 0.41 67 1010.0
20260903222730 17 0 0.0 3.2 0.00 0.58 0.41 69 1010.0
20260903221730 17 0 0.0 0.0 0.00 0.71 0.41 67 1010.1
20260903221240 17 0 0.0 0.0 0.00 0.76 0.41 69 1010.1
20260903220731 16 244 0.0 0.0 0.00 0.84 0.41 70 1010.2
20260903215230 16 242 0.0 0.0 0.00 1.04 0.41 73 1010.2
20260903214731 16 242 0.0 0.0 0.00 1.12 0.41 73 1010.2
20260903214230 16 242 0.0 0.0 0.00 1.17 0.41 74 1010.1
20260903213232 16 245 0.0 3.2 0.00 1.40 0.41 73 1010.1
20260903212731 16 0 0.0 3.2 0.00 1.52 0.41 72 1010.1
20260903212231 16 0 0.0 0.0 0.00 1.60 0.41 70 1010.1
20260903211734 16 0 0.0 0.0 0.00 1.68 0.41 70 1010.0
20260903211233 16 0 0.0 1.6 0.00 1.78 0.41 71 1010.1
20260903210236 16 0 3.2 8.0 0.00 1.91 0.41 70 1010.2
20260903203735 15 172 1.6 4.8 0.00 2.21 0.41 76 1010.2
20260903203228 15 186 1.6 0.0 0.00 2.21 0.41 76 1010.2
20260903202934 15 217 3.2 8.0 0.00 2.21 0.41 76 1010.2
20260903202437 15 0 3.2 8.0 0.00 2.21 0.41 78 1010.2
20260903201935 15 0 3.2 8.0 0.00 2.21 0.41 78 1010.3
20260903201435 15 0 3.2 8.0 0.00 2.21 0.41 80 1010.3
20260903200936 15 0 3.2 9.7 0.00 2.21 0.41 80 1010.4
20260903200436 15 0 3.2 9.7 0.00 2.21 0.41 81 1010.5
20260903195432 14 0 3.2 8.0 0.00 2.21 0.41 78 1010.6
20260903194933 14 0 1.6 8.0 0.00 2.21 0.41 80 1010.7
20260903194432 14 0 1.6 4.8 0.00 2.21 0.41 81 1010.5
20260903193931 14 0 3.2 6.4 0.00 2.21 0.41 81 1010.5
20260903193434 14 0 6.4 12.9 0.10 2.21 0.41 80 1010.6
20260903192934 14 0 6.4 12.9 0.18 2.21 0.41 79 1010.6
20260903191934 13 0 4.8 12.9 0.25 2.21 0.41 80 1010.7
20260903190431 13 0 4.8 11.3 0.28 2.21 0.41 82 1010.8
20260903185932 12 0 6.4 11.3 0.30 2.21 0.41 82 1010.8
20260903185432 12 121 4.8 9.7 0.30 2.21 0.41 81 1010.9
20260903184931 12 0 3.2 9.7 0.30 2.21 0.41 84 1010.9
20260903184432 12 0 3.2 9.7 0.30 2.21 0.41 83 1011.2
20260903183930 12 0 3.2 8.0 0.30 2.21 0.38 83 1010.8
20260903183434 12 0 3.2 8.0 0.20 2.11 0.30 83 1010.9
20260903182931 12 0 3.2 8.0 0.13 2.03 0.15 83 1010.8
20260903182431 12 0 3.2 8.0 0.05 1.96 0.15 82 1010.6
20260903180931 13 0 1.6 6.4 0.05 1.96 0.15 82 1010.7
20260903180433 13 0 1.6 6.4 0.03 1.93 0.13 82 1010.8
20260903175435 13 0 1.6 4.8 0.00 1.91 0.10 81 1010.8
20260903174931 13 0 1.6 6.4 0.00 1.91 0.10 81 1010.7
20260903173930 13 0 3.2 12.9 0.00 1.91 0.10 82 1010.8
20260903173432 13 0 3.2 12.9 0.00 1.91 0.10 82 1010.9
20260903172931 13 0 3.2 9.7 0.00 1.91 0.10 82 1010.9
20260903172434 13 0 3.2 9.7 0.00 1.91 0.10 82 1010.8
20260903171930 13 0 1.6 8.0 0.00 1.91 0.10 82 1010.8
20260903171431 12 0 1.6 6.4 0.00 1.91 0.10 83 1010.6
20260903170430 12 0 1.6 8.0 0.00 1.91 0.10 83 1010.7
20260903165931 12 0 1.6 6.4 0.00 1.91 0.10 83 1010.6
20260903165432 12 0 3.2 6.4 0.00 1.91 0.10 83 1010.6
20260903164932 12 0 3.2 6.4 0.00 1.91 0.10 83 1010.6
20260903163931 12 206 1.6 6.4 0.00 1.91 0.10 83 1010.4
20260903163434 12 209 1.6 4.8 0.00 1.91 0.10 83 1010.3
20260903162933 12 211 0.0 4.8 0.00 1.91 0.10 83 1010.5
20260903162435 12 217 1.6 6.4 0.03 1.91 0.10 84 1010.6
20260903161934 12 218 1.6 6.4 0.03 1.91 0.10 83 1010.4
20260903160934 12 240 3.2 8.0 0.03 1.91 0.10 83 1010.2
20260903155932 12 237 3.2 9.7 0.03 1.91 0.10 83 1010.3
20260903155434 12 210 3.2 8.0 0.03 1.91 0.10 83 1010.3
20260903154930 12 216 3.2 11.3 0.03 1.91 0.10 84 1010.2
20260903154431 12 225 3.2 11.3 0.03 1.91 0.10 84 1010.2
20260903153434 12 211 3.2 11.3 0.03 1.91 0.10 84 1010.0
20260903152931 12 237 3.2 8.0 0.03 1.91 0.10 84 1010.0
20260903152430 12 232 4.8 8.0 0.00 1.88 0.08 84 1010.0
20260903151931 12 207 3.2 8.0 0.00 1.88 0.08 84 1010.0
20260903151430 11 206 3.2 8.0 0.00 1.88 0.08 85 1009.8
20260903150933 11 208 3.2 8.0 0.00 1.88 0.08 85 1009.8
20260903150432 11 211 3.2 8.0 0.00 1.88 0.08 85 1009.7
20260903145930 11 214 3.2 8.0 0.00 1.88 0.08 85 1009.7
20260903144933 11 196 3.2 8.0 0.00 1.88 0.08 85 1009.6
20260903144430 11 220 1.6 6.4 0.03 1.88 0.08 85 1009.6
20260903143430 11 215 3.2 6.4 0.03 1.88 0.08 85 1009.7
20260903142931 11 183 1.6 6.4 0.03 1.88 0.08 85 1009.7
20260903142431 11 175 1.6 6.4 0.05 1.88 0.08 85 1009.6
20260903141930 11 126 3.2 6.4 0.05 1.88 0.08 85 1009.6
20260903140931 10 97 1.6 6.4 0.05 1.88 0.08 85 1009.6
20260903140431 10 14 0.0 0.0 0.05 1.88 0.08 85 1009.6
20260903135931 10 11 0.0 0.0 0.05 1.88 0.08 85 1009.7
20260903135430 10 11 0.0 0.0 0.05 1.88 0.08 85 1009.8
20260903134932 10 11 0.0 0.0 0.05 1.88 0.08 85 1009.6
20260903134433 10 11 0.0 0.0 0.03 1.85 0.05 85 1009.6
20260903133933 10 11 0.0 0.0 0.03 1.85 0.05 85 1009.5
20260903133426 10 11 0.0 0.0 0.03 1.85 0.05 85 1009.5
20260903132926 10 30 0.0 0.0 0.05 1.85 0.05 85 1009.3
20260903132426 10 30 0.0 0.0 0.03 1.83 0.03 85 1009.4
20260903131926 10 30 0.0 0.0 0.03 1.83 0.03 85 1009.2
20260903131426 10 30 0.0 0.0 0.03 1.83 0.03 85 1009.1
20260903130927 10 30 0.0 0.0 0.03 1.83 0.03 85 1009.1
20260903130427 10 30 0.0 0.0 0.03 1.83 0.03 85 1009.1
20260903125928 10 30 0.0 0.0 0.03 1.83 0.03 85 1009.0
20260903125427 10 30 0.0 0.0 0.03 1.83 0.03 85 1008.9
20260903124927 10 30 0.0 0.0 0.03 1.83 0.03 85 1008.9
20260903123924 10 329 1.6 4.8 0.03 1.83 0.03 85 1008.7
20260903123424 10 286 1.6 4.8 0.03 1.83 0.03 85 1008.7
20260903122922 10 255 1.6 4.8 0.00 1.80 0.00 85 1008.7
20260903121922 10 252 0.0 3.2 0.00 1.80 0.00 85 1008.6
20260903120919 10 242 1.6 3.2 0.00 1.80 0.00 85 1008.6
20260903115916 10 242 1.6 3.2 0.00 1.80 0.00 85 1008.7
20260903115417 10 242 1.6 3.2 0.00 1.80 0.00 85 1008.6
20260903114914 10 242 1.6 3.2 0.00 1.80 0.00 85 1008.7
20260903114414 10 242 0.0 3.2 0.00 1.80 0.00 85 1008.7
20260903113913 10 242 0.0 3.2 0.00 1.80 0.00 85 1008.6
20260903113411 10 242 0.0 3.2 0.00 1.80 0.00 85 1008.7
20260903112912 10 242 1.6 3.2 0.00 1.80 0.00 85 1008.9
20260903112412 10 242 0.0 3.2 0.00 1.80 0.00 85 1008.7
20260903111411 10 243 0.0 3.2 0.00 1.80 0.00 85 1008.7
20260903110908 10 243 1.6 3.2 0.00 1.80 0.00 85 1008.7